Location: Archemont
(49.1579°N, 1.7598°E)
Time: 18:07:40
(UTC+00:00)

S-56A Canister/Altair - Visible Passes

Search period start: 23 April 2024 00:00
Search period end: 03 May 2024 00:00
Orbit: 639 x 2488 km, 38.9° (Epoch: 22 April)

Date Brightness Start Highest point End Pass type
(mag) Time Alt. Az. Time Alt. Az. Time Alt. Az.
23 Apr 9.5 19:20:49 10° WSW 19:26:39 33° S 19:34:51 10° SE visible
23 Apr 10.3 21:24:45 10° WSW 21:30:21 20° SSW 21:33:33 17° S visible
24 Apr 10.2 20:51:22 10° WSW 20:56:45 20° SSW 21:01:41 14° S visible
25 Apr 10.1 20:18:03 10° WSW 20:23:12 21° SSW 20:29:51 10° SSE visible
26 Apr 10.0 19:44:48 10° WSW 19:49:41 21° SSW 19:56:02 10° SSE visible
